Tracking 19903 objects as of 16-Oct-2019
HD Live streaming from Space Station
objects crossing your sky now

FENGYUN 1C DEB

Track FENGYUN 1C DEB now!
10-day predictions


NORAD ID: 31923
Int'l Code: 1999-025CMA
Perigee: 847.1 km
Apogee: 1,315.0 km
Inclination: 98.4 °
Period: 106.7 minutes
Semi major axis: 7452 km
RCS: 0.0082 m2 (small)
Launch date: May 10, 1999
Source: People's Republic of China (PRC)
Launch site: Taiyaun Space Center, China (TSC)

Note: This is SATELLITE DEBRIS
aabbcc
Your satellite tracking list
Your tracking list is empty




NASA's NSSDC Master Catalog

Two Line Element Set (TLE):
1 31923U 99025CMA 19289.08305871  .00000183  00000-0  25355-3 0  9999
2 31923  98.4117 330.8545 0313889  17.4960 343.6707 13.49553334608584
Source of the keplerian elements: AFSPC